Location: Alafon
(8.4500°N, 4.2333°E)
Time: 16:03:10
(UTC+00:00)

Transit 2A - Pass Details

Date: 08 August 2021
Orbit: 595 x 964 km, 66.7° (Epoch: 18 September)

Event Time Altitude Azimuth Distance (km) Brightness Sun altitude
Rises 15:14:39 0° 317° (NW) 3,537 10.1 39.2°
Reaches altitude 10° 15:17:34 10° 304° (WNW) 2,636 9.9 38.5°
Maximum altitude 15:22:28 25° 251° (WSW) 1,838 9.2 37.4°
Drops below altitude 10° 15:27:29 10° 199° (SSW) 2,693 9.0 36.2°
Sets 15:30:32 0° 186° (S) 3,630 9.4 35.4°
